Tiempo cada hora Cayo de Willy

Hoy, 19 Enero, Martes

Tiempo Temperatura Precipitaciones Viento Presión Humedad
00:00 +25°C° 0 mm 2 mps 763 mmHg 92%
01:00 +24°C° 0 mm 2 mps 763 mmHg 92%
02:00 +24°C° 0 mm 2 mps 763 mmHg 92%
03:00 +24°C° 0 mm 2 mps 762 mmHg 93%
04:00 +24°C° 0 mm 2 mps 762 mmHg 93%
05:00 +24°C° 0 mm 2 mps 763 mmHg 93%
06:00 +24°C° 0 mm 2 mps 763 mmHg 92%
07:00 +24°C° 0 mm 2 mps 764 mmHg 91%
08:00 +26°C° 0.1 mm 2 mps 764 mmHg 85%
09:00 +27°C° 0.1 mm 2 mps 764 mmHg 80%
10:00 +28°C° 0.1 mm 3 mps 765 mmHg 74%
11:00 +29°C° 0 mm 3 mps 764 mmHg 71%
12:00 +29°C° 0 mm 3 mps 764 mmHg 68%
13:00 +29°C° 0 mm 3 mps 763 mmHg 65%
14:00 +29°C° 0 mm 3 mps 763 mmHg 68%
15:00 +28°C° 0 mm 3 mps 763 mmHg 70%
16:00 +28°C° 0 mm 3 mps 762 mmHg 73%
17:00 +27°C° 0.1 mm 3 mps 763 mmHg 79%
18:00 +26°C° 0.1 mm 3 mps 763 mmHg 85%
19:00 +25°C° 0.1 mm 3 mps 764 mmHg 91%
20:00 +25°C° 0.1 mm 3 mps 764 mmHg 91%
21:00 +25°C° 0.1 mm 3 mps 764 mmHg 92%
22:00 +25°C° 0.1 mm 3 mps 764 mmHg 92%
23:00 +25°C° 0.2 mm 3 mps 764 mmHg 92%

Mañana, 20 Enero, Miércoles

Tiempo Temperatura Precipitaciones Viento Presión Humedad
00:00 +25°C° 0.2 mm 3 mps 763 mmHg 92%
01:00 +24°C° 0.2 mm 3 mps 763 mmHg 92%
02:00 +24°C° 0.1 mm 3 mps 763 mmHg 92%
03:00 +24°C° 0.1 mm 3 mps 762 mmHg 92%
04:00 +25°C° 0.1 mm 2 mps 762 mmHg 92%
05:00 +25°C° 0.1 mm 2 mps 762 mmHg 92%
06:00 +25°C° 0.1 mm 2 mps 763 mmHg 92%
07:00 +25°C° 0.1 mm 2 mps 763 mmHg 92%
08:00 +26°C° 0.2 mm 2 mps 763 mmHg 87%
09:00 +27°C° 0.2 mm 3 mps 763 mmHg 83%
10:00 +28°C° 0.2 mm 3 mps 763 mmHg 78%
11:00 +29°C° 0.1 mm 3 mps 763 mmHg 74%
12:00 +29°C° 0.1 mm 3 mps 762 mmHg 70%
13:00 +30°C° 0.1 mm 3 mps 761 mmHg 66%
14:00 +29°C° 0.2 mm 3 mps 761 mmHg 72%
15:00 +28°C° 0.2 mm 3 mps 761 mmHg 77%
16:00 +27°C° 0.2 mm 3 mps 760 mmHg 82%
17:00 +26°C° 0.2 mm 3 mps 761 mmHg 86%
18:00 +26°C° 0.2 mm 2 mps 762 mmHg 90%
19:00 +25°C° 0.2 mm 2 mps 762 mmHg 93%
20:00 +25°C° 0.3 mm 2 mps 762 mmHg 93%
21:00 +25°C° 0.3 mm 2 mps 762 mmHg 93%
22:00 +24°C° 0.3 mm 2 mps 762 mmHg 94%
23:00 +24°C° 0.2 mm 2 mps 762 mmHg 94%

Pasado mañana, 21 Enero, Jueves

Tiempo Temperatura Precipitaciones Viento Presión Humedad
00:00 +24°C° 0.2 mm 2 mps 762 mmHg 94%
01:00 +24°C° 0.2 mm 1 mps 762 mmHg 94%
02:00 +24°C° 0.2 mm 1 mps 761 mmHg 94%
03:00 +24°C° 0.2 mm 1 mps 761 mmHg 94%
04:00 +24°C° 0.2 mm 1 mps 761 mmHg 94%
05:00 +24°C° 0.2 mm 1 mps 761 mmHg 94%
06:00 +24°C° 0.2 mm 1 mps 762 mmHg 94%
07:00 +24°C° 0.2 mm 1 mps 762 mmHg 94%
08:00 +25°C° 0.5 mm 1 mps 762 mmHg 92%
09:00 +26°C° 0.5 mm 1 mps 762 mmHg 90%
10:00 +27°C° 0.5 mm 1 mps 762 mmHg 88%
11:00 +27°C° 0.5 mm 1 mps 762 mmHg 83%
12:00 +28°C° 0.5 mm 1 mps 761 mmHg 79%
13:00 +29°C° 0.5 mm 2 mps 761 mmHg 75%
14:00 +28°C° 0.4 mm 2 mps 761 mmHg 77%
15:00 +27°C° 0.4 mm 2 mps 761 mmHg 78%
16:00 +27°C° 0.4 mm 3 mps 760 mmHg 80%
17:00 +26°C° 0.2 mm 2 mps 761 mmHg 84%
18:00 +25°C° 0.2 mm 2 mps 761 mmHg 87%
19:00 +24°C° 0.2 mm 2 mps 762 mmHg 90%
20:00 +24°C° 0.2 mm 2 mps 762 mmHg 91%
21:00 +24°C° 0.2 mm 2 mps 762 mmHg 92%
22:00 +24°C° 0.2 mm 2 mps 762 mmHg 93%
23:00 +24°C° 0.1 mm 2 mps 762 mmHg 93%

22 Enero, Viernes

Tiempo Temperatura Precipitaciones Viento Presión Humedad
00:00 +24°C° 0.1 mm 2 mps 761 mmHg 93%
01:00 +24°C° 0.1 mm 1 mps 761 mmHg 93%
02:00 +24°C° 0.2 mm 1 mps 761 mmHg 94%
03:00 +24°C° 0.2 mm 1 mps 761 mmHg 94%
04:00 +23°C° 0.2 mm 1 mps 761 mmHg 94%
05:00 +24°C° 0.4 mm 1 mps 761 mmHg 94%
06:00 +24°C° 0.4 mm 1 mps 762 mmHg 94%
07:00 +24°C° 0.4 mm 1 mps 762 mmHg 94%
08:00 +25°C° 0.3 mm 1 mps 762 mmHg 89%
09:00 +27°C° 0.3 mm 1 mps 763 mmHg 83%
10:00 +28°C° 0.3 mm 2 mps 763 mmHg 78%
11:00 +29°C° 0.1 mm 2 mps 762 mmHg 73%
12:00 +29°C° 0.1 mm 2 mps 762 mmHg 69%
13:00 +30°C° 0.1 mm 2 mps 761 mmHg 64%
14:00 +29°C° 0.1 mm 3 mps 761 mmHg 68%
15:00 +29°C° 0.1 mm 3 mps 761 mmHg 72%
16:00 +28°C° 0.1 mm 3 mps 761 mmHg 76%
17:00 +27°C° 0 mm 2 mps 761 mmHg 81%
18:00 +26°C° 0 mm 2 mps 761 mmHg 86%
19:00 +25°C° 0 mm 2 mps 762 mmHg 92%
20:00 +24°C° 0 mm 2 mps 762 mmHg 92%
21:00 +24°C° 0 mm 1 mps 762 mmHg 92%
22:00 +24°C° 0 mm 1 mps 762 mmHg 93%
23:00 +24°C° 0 mm 1 mps 762 mmHg 93%

23 Enero, Sábado

Tiempo Temperatura Precipitaciones Viento Presión Humedad
00:00 +24°C° 0 mm 1 mps 762 mmHg 94%
01:00 +24°C° 0 mm 1 mps 762 mmHg 94%
02:00 +23°C° 0 mm 1 mps 762 mmHg 94%
03:00 +23°C° 0 mm 1 mps 761 mmHg 94%
04:00 +23°C° 0 mm 1 mps 761 mmHg 95%
05:00 +23°C° 0 mm 1 mps 762 mmHg 94%
06:00 +23°C° 0 mm 1 mps 762 mmHg 93%
07:00 +22°C° 0 mm 0 mps 762 mmHg 92%
08:00 +24°C° 0 mm 0 mps 763 mmHg 82%
09:00 +28°C° 0 mm 1 mps 763 mmHg 72%
10:00 +30°C° 0 mm 1 mps 763 mmHg 62%
11:00 +30°C° 0 mm 1 mps 763 mmHg 61%
12:00 +30°C° 0 mm 2 mps 762 mmHg 60%
13:00 +30°C° 0 mm 2 mps 762 mmHg 58%
14:00 +30°C° 0 mm 2 mps 761 mmHg 62%
15:00 +29°C° 0 mm 2 mps 761 mmHg 66%
16:00 +28°C° 0 mm 3 mps 761 mmHg 70%
17:00 +27°C° 0 mm 2 mps 761 mmHg 76%
18:00 +26°C° 0 mm 2 mps 761 mmHg 82%
19:00 +24°C° 0 mm 2 mps 762 mmHg 88%
20:00 +24°C° 0 mm 2 mps 762 mmHg 89%
21:00 +24°C° 0 mm 2 mps 762 mmHg 90%
22:00 +24°C° 0 mm 2 mps 763 mmHg 91%
23:00 +24°C° 0.1 mm 2 mps 762 mmHg 91%

24 Enero, Domingo

Tiempo Temperatura Precipitaciones Viento Presión Humedad
00:00 +24°C° 0.1 mm 2 mps 762 mmHg 92%
01:00 +24°C° 0.1 mm 2 mps 762 mmHg 93%
02:00 +24°C° 0.1 mm 2 mps 762 mmHg 93%
03:00 +24°C° 0.1 mm 2 mps 761 mmHg 93%
04:00 +24°C° 0.1 mm 2 mps 761 mmHg 94%
05:00 +24°C° 0.1 mm 2 mps 762 mmHg 93%
06:00 +24°C° 0.1 mm 2 mps 762 mmHg 92%
07:00 +24°C° 0.1 mm 2 mps 762 mmHg 91%
08:00 +25°C° 0 mm 2 mps 762 mmHg 82%
09:00 +26°C° 0 mm 2 mps 763 mmHg 73%
10:00 +28°C° 0 mm 3 mps 763 mmHg 63%
11:00 +28°C° 0 mm 3 mps 762 mmHg 61%
12:00 +28°C° 0 mm 3 mps 762 mmHg 59%
13:00 +29°C° 0 mm 3 mps 762 mmHg 57%
14:00 +28°C° 0 mm 3 mps 761 mmHg 60%
15:00 +28°C° 0 mm 3 mps 761 mmHg 62%
16:00 +27°C° 0 mm 3 mps 761 mmHg 65%
17:00 +26°C° 0 mm 3 mps 761 mmHg 70%
18:00 +24°C° 0 mm 2 mps 761 mmHg 75%
19:00 +23°C° 0 mm 2 mps 762 mmHg 80%
20:00 +23°C° 0 mm 2 mps 762 mmHg 81%
21:00 +23°C° 0 mm 2 mps 762 mmHg 82%
22:00 +21°C° 0 mm 2 mps 762 mmHg 83%
23:00 +21°C° 0 mm 2 mps 762 mmHg 84%
Mostrar más